This demonstration page uses our WeatherBlox Daily Observations layout. Learn more.

Left ArrowRight Arrow

Hourly Observations for May 12, 2021

Temp ( °F °C ) Dew Point ( °F °C ) Humidity (%) Winds ( mph kmh ) Pressure ( in mb ) Visibility ( mi km ) Precip ( " mm )
12:53 am 00:53 Clear 43 6.1 36 2.2 76 76 N 5 7 30.36 1028 10 16 N/A
1:53 am 01:53 Clear 44 6.7 35 1.7 71 71 NNE 5 7 30.35 1028 10 16 N/A
2:53 am 02:53 Clear 44 6.7 34 1.1 68 68 NNW 6 9 30.35 1028 10 16 N/A
3:53 am 03:53 Clear 44 6.7 33 0.6 65 65 NNE 6 9 30.35 1028 10 16 N/A
4:53 am 04:53 Clear 42 5.6 33 0.6 71 71 NE 5 7 30.36 1028 10 16 N/A
5:53 am 05:53 Clear 41 5 33 0.6 73 73 NNE 5 7 30.38 1029 10 16 N/A
6:53 am 06:53 Sunny 40 4.4 33 0.6 77 77 NNE 5 7 30.40 1029 10 16 N/A
7:53 am 07:53 Sunny 44 6.7 35 1.7 71 71 NNE 6 9 30.41 1030 10 16 N/A
8:53 am 08:53 Sunny 49 9.4 36 2.2 61 61 NE 7 11 30.42 1030 10 16 N/A
9:53 am 09:53 Sunny 53 11.7 35 1.7 51 51 NNE 10 17 30.43 1030 10 16 N/A
10:53 am 10:53 Sunny 56 13.3 34 1.1 44 44 E 12 19 30.41 1030 10 16 N/A
11:53 am 11:53 Sunny 58 14.4 34 1.1 41 41 ENE 10 17 30.40 1030 10 16 N/A
12:53 pm 12:53 Sunny 59 15 35 1.7 41 41 NE 6 9 30.40 1029 10 16 N/A
1:53 pm 13:53 Mostly Sunny 61 16.1 37 2.8 41 41 NNE 7 11 30.37 1029 10 16 N/A
2:53 pm 14:53 Mostly Cloudy 62 16.7 37 2.8 40 40 NNE 9 15 30.37 1028 10 16 N/A
3:53 pm 15:53 Mostly Cloudy 61 16.1 35 1.7 38 38 VRB 7 11 30.36 1028 10 16 N/A
4:53 pm 16:53 Partly Cloudy 64 17.8 36 2.2 35 35 VRB 6 9 30.34 1027 10 16 N/A
5:53 pm 17:53 Mostly Cloudy 60 15.6 34 1.1 38 38 ENE 7 11 30.34 1027 10 16 N/A
6:53 pm 18:53 Partly Cloudy 63 17.2 33 0.6 33 33 N 8 13 30.33 1027 10 16 N/A
7:53 pm 19:53 Cloudy 60 15.6 33 0.6 36 36 NE 8 13 30.33 1027 10 16 N/A
8:53 pm 20:53 Partly Cloudy 57 13.9 34 1.1 42 42 NNE 6 9 30.34 1027 10 16 N/A
9:53 pm 21:53 Clear 49 9.4 38 3.3 66 66 NNE 5 7 30.36 1028 10 16 N/A
10:53 pm 22:53 Clear 50 10 37 2.8 61 61 NNE 5 7 30.37 1029 10 16 N/A
11:53 pm 23:53 Clear 47 8.3 36 2.2 66 66 NNE 5 7 30.38 1029 10 16 N/A

Powered by AerisWeather